Fallon, NV

8:38 PM PST on February 20, 2017 (GMT -0800)
Fallon Naval Air Station

Weather History for KNFL - April, 2014

Change the Weather History Date:

Tuesday, April 29, 2014

  Actual Average Record
Temperature  
Mean Temperature 52 °F -  
Max Temperature 71 °F 68 °F 86 °F (1992)
Min Temperature 33 °F 35 °F 22 °F (1975)
Degree Days  
Heating Degree Days 13    
Growing Degree Days 2 (Base 50)    
Moisture  
Dew Point 16 °F    
Average Humidity 28    
Maximum Humidity 64    
Minimum Humidity 11    
Precipitation  
Precipitation 0.00 in - - ()
Sea Level Pressure  
Sea Level Pressure 30.28 in    
Wind  
Wind Speed 5 mph (NE)    
Max Wind Speed 12 mph    
Max Gust Speed 22 mph    
Visibility 10 miles    
Events      
Averages and records for this station are not official NWS values.
T = Trace of Precipitation, MM = Missing Value Source: NWS Daily Summary

Daily Weather History Graph

Daily Weather History Graph

Search for Another Location

Airport or City:

Trip Planner

Search our weather history database for the weather conditions in past years. The results will help you decide how hot, cold, wet, or windy it might be!

Date:

Astronomy

Apr. 29, 2014 Rise Set
Actual Time 5:58 AM PDT 7:46 PM PDT
Civil Twilight 5:29 AM PDT 8:15 PM PDT
Nautical Twilight 4:54 AM PDT 8:50 PM PDT
Astronomical Twilight 4:17 AM PDT 9:28 PM PDT
Moon 6:19 AM PDT (4/29) 8:31 PM PDT (4/29)
Length of Visible Light 14h 45m
Length of Day
13h 48m
New Moon, 0% of the Moon is Illuminated
Apr 29
New Moon
May 6
First Quarter
May 14
Full
May 21
Last Quarter
May 28
New

Hourly Weather History & Observations

Time (PDT) Temp. Windchill Dew Point Humidity Pressure Visibility Wind Dir Wind Speed Gust Speed Precip Events Conditions
12:56 AM 43.0 °F - 21.0 °F 42% 30.24 in 10.0 mi Calm Calm - N/A   Clear
1:56 AM 37.9 °F 35.5 °F 23.0 °F 55% 30.25 in 10.0 mi North 3.5 mph - N/A   Clear
2:56 AM 36.0 °F - 23.0 °F 59% 30.25 in 10.0 mi Calm Calm - N/A   Clear
3:56 AM 36.0 °F 30.3 °F 19.9 °F 52% 30.26 in 10.0 mi ENE 6.9 mph - N/A   Clear
4:56 AM 33.1 °F 30.0 °F 21.9 °F 64% 30.27 in 10.0 mi NE 3.5 mph - N/A   Clear
5:56 AM 35.1 °F 31.0 °F 19.0 °F 52% 30.29 in 10.0 mi NNE 4.6 mph - N/A   Clear
6:15 AM 36.0 °F 33.3 °F 18.0 °F 48% 30.42 in 10.0 mi North 3.5 mph - N/A   Scattered Clouds
6:56 AM 42.1 °F 40.2 °F 19.0 °F 40% 30.31 in 10.0 mi ENE 3.5 mph - N/A   Scattered Clouds
7:56 AM 48.0 °F - 16.0 °F 28% 30.33 in 10.0 mi SSW 4.6 mph - N/A   Partly Cloudy
8:56 AM 52.0 °F - 15.1 °F 23% 30.34 in 10.0 mi South 4.6 mph - N/A   Partly Cloudy
9:56 AM 55.0 °F - 16.0 °F 22% 30.33 in 10.0 mi East 3.5 mph - N/A   Partly Cloudy
10:56 AM 60.1 °F - 16.0 °F 18% 30.33 in 10.0 mi Variable 4.6 mph - N/A   Partly Cloudy
11:56 AM 64.0 °F - 16.0 °F 16% 30.32 in 10.0 mi NNE 8.1 mph - N/A   Scattered Clouds
12:56 PM 66.9 °F - 16.0 °F 14% 30.29 in 10.0 mi East 8.1 mph - N/A   Scattered Clouds
1:56 PM 68.0 °F - 16.0 °F 14% 30.27 in 10.0 mi ENE 6.9 mph 16.1 mph N/A   Scattered Clouds
2:56 PM 69.1 °F - 16.0 °F 13% 30.26 in 10.0 mi North 9.2 mph 21.9 mph N/A   Scattered Clouds
3:56 PM 71.1 °F - 17.1 °F 13% 30.24 in 10.0 mi NNE 11.5 mph 18.4 mph N/A   Scattered Clouds
4:56 PM 70.0 °F - 15.1 °F 12% 30.23 in 10.0 mi NE 5.8 mph 19.6 mph N/A   Scattered Clouds
5:56 PM 70.0 °F - 14.0 °F 12% 30.22 in 10.0 mi NE 10.4 mph - N/A   Scattered Clouds
6:56 PM 68.0 °F - 12.0 °F 11% 30.22 in 10.0 mi NE 11.5 mph - N/A   Mostly Cloudy
7:56 PM 62.1 °F - 9.0 °F 12% 30.22 in 10.0 mi NE 9.2 mph - N/A   Mostly Cloudy
8:56 PM 59.0 °F - 10.9 °F 15% 30.23 in 10.0 mi NE 9.2 mph - N/A   Mostly Cloudy
9:56 PM 55.9 °F - 8.1 °F 15% 30.25 in 10.0 mi NE 11.5 mph - N/A   Partly Cloudy
10:56 PM 55.9 °F - 10.0 °F 16% 30.25 in 10.0 mi ENE 10.4 mph - N/A   Partly Cloudy
11:56 PM 46.9 °F - 15.1 °F 28% 30.26 in 10.0 mi NNE 6.9 mph - N/A   Clear